EW7405 Weather Reports


time (UTC)temp
C
wind
direction
speed
KPH
gust
KPH
rain 1hr
cm
rain 24hr
cm
rain mn
cm
humidity
%
barometer
mb
20260507030041 5 340 0.0 0.0 0.10 3.17 3.17 97 1007.0
20260507024551 5 340 0.0 0.0 0.10 3.15 3.15 96 1007.7
20260507023039 5 340 0.0 0.0 0.08 3.12 3.12 96 1007.8
20260507021539 5 340 0.0 0.0 0.13 3.10 3.10 96 1007.6
20260507020037 6 327 0.0 0.0 0.13 3.07 3.07 96 1007.5
20260507014535 6 13 0.0 0.0 0.13 3.07 3.05 96 1007.1
20260507013038 6 360 0.0 0.0 0.15 3.07 3.05 96 1007.1
20260507011535 6 360 0.0 0.0 0.08 3.00 2.97 96 1007.0
20260507010038 6 360 0.0 0.0 0.03 2.92 2.90 96 1006.8
20260507004532 6 360 0.0 0.0 0.05 2.92 2.90 96 1006.4
20260507003032 6 355 0.0 0.0 0.05 2.90 2.87 96 1006.5
20260507001544 6 355 0.0 0.0 0.05 2.90 2.87 96 1006.1
20260507000031 6 5 0.0 0.0 0.03 2.87 2.84 96 1005.7
20260506234545 6 339 0.0 0.0 0.03 2.87 2.84 96 1006.1
20260506233029 6 339 0.0 0.0 0.00 2.84 2.84 95 1005.7
20260506231534 6 300 0.0 0.0 0.00 2.84 2.84 95 1005.7
20260506230027 6 248 0.0 8.0 0.00 2.84 2.84 95 1005.4
20260506224529 6 15 0.0 0.0 0.08 2.84 2.84 95 1005.4
20260506223024 6 332 0.0 4.8 0.15 2.84 2.84 95 1005.1
20260506221524 7 334 0.0 0.0 0.23 2.84 2.84 95 1004.9
20260506220032 7 306 0.0 0.0 0.28 2.84 2.84 96 1005.0
20260506214522 7 355 0.0 0.0 0.23 2.82 2.77 96 1005.1
20260506213021 7 360 0.0 0.0 0.18 2.74 2.69 94 1005.0
20260506211521 7 5 0.0 3.2 0.13 2.67 2.62 94 1005.2
20260506210017 8 332 0.0 0.0 0.08 2.62 2.57 95 1004.8
20260506204515 8 338 0.0 0.0 0.05 2.97 2.54 96 1004.7
20260506203015 8 355 0.0 0.0 0.05 2.92 2.51 96 1004.4
20260506201516 8 40 0.0 0.0 0.03 2.90 2.49 95 1004.3
20260506200013 8 11 0.0 0.0 0.05 2.90 2.49 96 1004.3
20260506194513 8 51 0.0 0.0 0.05 2.90 2.49 96 1004.4
20260506193012 8 22 0.0 0.0 0.05 2.87 2.46 97 1004.6
20260506191512 8 5 0.0 0.0 0.13 2.87 2.46 96 1004.7
20260506190010 8 355 0.0 0.0 0.23 2.84 2.44 96 1004.7
20260506184510 8 9 0.0 0.0 0.28 2.84 2.44 96 1004.7
20260506183010 8 5 0.0 0.0 0.30 2.84 2.41 96 1004.9
20260506181510 8 355 0.0 0.0 0.38 2.77 2.34 96 1005.3
20260506180007 8 187 0.0 3.2 0.30 2.64 2.21 95 1005.5
20260506174506 8 70 0.0 3.2 0.33 2.59 2.16 96 1005.3
20260506173002 10 181 0.0 16.1 0.30 2.51 2.08 94 1005.1
20260506171502 11 176 0.0 0.0 0.23 2.39 1.96 97 1004.6
20260506170110 11 19 0.0 0.0 0.23 2.34 1.91 97 1004.5
20260506164559 11 9 0.0 0.0 0.20 2.26 1.83 97 1004.8
20260506163058 11 9 0.0 0.0 0.23 2.21 1.78 97 1004.9
20260506161558 11 9 0.0 0.0 0.23 2.16 1.73 97 1005.4
20260506160108 10 9 0.0 0.0 0.23 2.11 1.68 96 1005.6
20260506154550 10 9 0.0 0.0 0.25 2.06 1.63 97 1006.0
20260506153052 10 9 0.0 0.0 0.23 1.98 1.55 96 1006.1
20260506151548 10 9 0.0 0.0 0.25 1.93 1.50 96 1006.2
20260506150050 10 9 0.0 0.0 0.25 1.88 1.42 97 1006.4
20260506144550 10 9 0.0 0.0 0.20 1.80 1.37 96 1006.3
20260506143047 10 121 0.0 0.0 0.25 1.75 1.32 96 1006.9
20260506141547 10 119 0.0 0.0 0.20 1.68 1.24 97 1006.6
20260506140046 10 38 0.0 0.0 0.23 1.63 1.19 97 1006.0
20260506134547 10 360 0.0 0.0 0.23 1.60 1.17 96 1006.5
20260506133042 10 360 0.0 0.0 0.15 1.50 1.07 96 1006.8
20260506131556 10 355 0.0 0.0 0.13 1.45 1.04 96 1007.0
20260506130049 10 355 0.0 0.0 0.05 1.40 0.97 96 1007.2
20260506124541 10 342 0.0 0.0 0.03 1.37 0.94 96 1007.0
20260506123041 10 342 0.0 0.0 0.00 1.35 0.91 96 1007.1
20260506121540 10 341 0.0 0.0 0.00 1.35 0.91 96 1006.9
20260506120040 10 38 0.0 0.0 0.00 1.35 0.91 96 1006.9
20260506114538 10 26 0.0 0.0 0.00 1.35 0.91 97 1006.8
20260506113036 10 67 0.0 0.0 0.00 1.35 0.91 97 1006.8
20260506111534 10 15 0.0 0.0 0.00 1.35 0.91 97 1007.2
20260506110034 10 55 0.0 0.0 0.00 1.35 0.91 97 1007.2
20260506104532 10 55 0.0 0.0 0.00 1.35 0.91 97 1007.5
20260506103038 10 55 0.0 0.0 0.00 1.35 0.91 97 1007.4
20260506101533 10 55 0.0 0.0 0.00 1.35 0.91 97 1007.5
20260506100035 10 55 0.0 0.0 0.00 1.35 0.91 97 1007.5
20260506094535 10 55 0.0 0.0 0.05 1.35 0.91 97 1007.7
20260506093034 10 56 0.0 0.0 0.05 1.35 0.91 97 1007.9
20260506091528 10 55 0.0 0.0 0.05 1.35 0.91 97 1008.1
20260506090025 10 55 0.0 0.0 0.05 1.35 0.91 97 1007.8
20260506084524 10 39 0.0 0.0 0.00 1.30 0.86 97 1007.5
20260506083023 10 39 0.0 0.0 0.13 1.30 0.86 97 1008.0
20260506081528 10 39 0.0 0.0 0.13 1.30 0.86 96 1007.6
20260506073018 10 235 0.0 0.0 0.05 1.17 0.71 96 1007.9
20260506071518 10 235 0.0 0.0 0.05 1.17 0.71 96 1008.1
20260506061515 10 312 0.0 0.0 0.18 1.12 0.69 95 1007.9
20260506044507 11 186 0.0 0.0 0.41 0.84 0.41 95 1008.5
20260506043005 11 323 0.0 3.2 0.23 0.66 0.23 96 1008.2
20260506041504 11 292 0.0 1.6 0.15 0.58 0.15 97 1007.7
20260506040058 11 5 0.0 0.0 0.03 0.46 0.03 97 1007.1
20260506034600 11 35 0.0 0.0 0.00 0.43 0.43 96 1006.7
20260506033057 11 35 0.0 0.0 0.00 0.43 0.43 96 1006.8
20260506031559 11 35 0.0 0.0 0.00 0.43 0.43 97 1006.6